Location: Olda
(45.8833°N, 9.5500°E)
Time: 06:30:58
(UTC+00:00)

Cosmos 2154 Rocket - Pass Details

Date: 03 March 2021
Orbit: 966 x 996 km, 82.9° (Epoch: 10 April)

Event Time Altitude Azimuth Distance (km) Brightness Sun altitude
Rises 17:33:38 0° 166° (SSE) 3,657 6.9 -4.7°
Reaches altitude 10° 17:36:14 10° 161° (SSE) 2,710 6.2 -5.1°
Maximum altitude 17:42:05 46° 90° (E) 1,289 4.3 -6.2°
Drops below altitude 10° 17:47:57 10° 20° (NNE) 2,717 6.1 -7.2°
Sets 17:50:33 0° 14° (NNE) 3,667 6.8 -7.6°
